Regional Weather Roundup
Issued by NWS Sterling, VA

Home | Current Version | Previous Version | Text Only | Print | Product List | Glossary On
Versions: 1 2 3 4 5 6 7 8 9 10 11 12 13 14 15 16 17 18 19 20 21 22 23 24 25 26 27 28 29 30 31 32 33 34 35 36 37 38 39 40 41 42 43 44 45 46 47 48 49 50
000
ASUS41 KLWX 010810
RWRLWX

REGIONAL WEATHER ROUNDUP
NATIONAL WEATHER SERVICE BALTIMORE MD/WASHINGTON DC
400 AM EDT SUN MAY 01 2016

Note: "FAIR" indicates few or no clouds below 12,000 feet
with no significant weather and/or obstructions to visibility.
 TC=TEMPERATURE CELSIUS

 * =Non NWS site. Station does not report precipitation (e.g. rain,
    snow, etc.), thunder, or fog.

DCZ001-MDZ009-015-VAZ040>042-051-053>054-010900-
WASHINGTON METRO

CITY           SKY/WX    TMP DP  RH WIND       PRES   REMARKS
WASHINGTON NAT LGT RAIN  52  49  89 S8        30.15F
DULLES         LGT RAIN  52  50  93 S9        30.13F
ANDREWS AFB    CLOUDY    50  48  94 SE8       30.14S
FT BELVOIR     LGT RAIN  52  50  93 SE5       30.14F
QUANTICO       LGT RAIN  54  50  86 S12       30.15F
COLLEGE PARK*  CLOUDY    50  46  87 CALM      30.14F
LEESBURG*      RAIN      54  54 100 S9        30.13S
MANASSAS*      CLOUDY    54  52  94 SE7       30.13F
GAITHERSBURG*  CLOUDY    50  46  87 SE7       30.17S

$$

MDZ006>007-011-014-010900-
BALTIMORE METRO

CITY           SKY/WX    TMP DP  RH WIND       PRES   REMARKS
BWI AIRPORT    LGT RAIN  49  46  90 SE5       30.14F
MD SCIENCE CTR   N/A     51  46  83 MISG      30.16S
MARTIN STATE   RAIN      52  46  82 SE9       30.17S
ANNAPOLIS      CLOUDY    52  45  77 MISG      30.15S
FORT MEADE*    CLOUDY    48  46  93 SE3       30.17S

$$

MDZ012-015-019>023-010900-
MARYLAND EASTERN SHORE

CITY           SKY/WX    TMP DP  RH WIND       PRES   REMARKS
OCEAN CITY     CLOUDY    50  47  89 E6        30.16F
SALISBURY      CLOUDY    50  47  89 SE3       30.16F
CAMBRIDGE*     CLOUDY    48  45  87 CALM      30.15F
EASTON*        DRIZZLE  N/A N/A N/A CALM      30.19S

$$

MDZ017>025-010900-
SOUTHERN MARYLAND

CITY           SKY/WX    TMP DP  RH WIND       PRES   REMARKS
PATUXENT RIVER CLOUDY    54  47  77 SE8       30.15S
ST INIGOES       N/A    N/A N/A N/A MISG        N/A
LEONARDTOWN*   CLOUDY    52  46  82 SE3       30.16F

$$

MDZ003>005-010900-
NORTH CENTRAL MARYLAND

CITY           SKY/WX    TMP DP  RH WIND       PRES   REMARKS
FREDERICK*     LGT RAIN  52  52 100 S6        30.15S
HAGERSTOWN APT LGT RAIN  52  49  89 S9        30.09S FOG
WESTMINSTER*   RAIN      48  46  93 S7        30.12S

$$

MDZ501>502-010900-
WESTERN MARYLAND

CITY           SKY/WX    TMP DP  RH WIND       PRES   REMARKS
OAKLAND*       FOG       46  46 100 SE3       30.02S VSB 3/4
CUMBERLAND*    CLOUDY    52  52 100 SW3       30.08F

$$

VAZ025>031-010900-
SHENANDOAH VALLEY

CITY           SKY/WX    TMP DP  RH WIND       PRES   REMARKS
WINCHESTER*    LGT RAIN  52  50  93 S10       30.08F
FRONT ROYAL*   CLOUDY    52  52 100 S3        30.07F
LURAY*         RAIN      52  52 100 SW8       30.08F
NEW MARKET*    CLOUDY    53  52  97 SW5       30.07F
STAUNTON*      LGT RAIN  55  55 100 S5        30.12S
WAYNESBORO*    CLOUDY    51  50  96 MISG      30.10F

$$

WVZ021-048>050-054>055-010900-
EASTERN WEST VIRGINIA PANHANDLE

CITY           SKY/WX    TMP DP  RH WIND       PRES   REMARKS
MARTINSBURG    LGT RAIN  51  50  96 S7        30.08F
PETERSBURG*    RAIN      56  54  92 SE3G16    30.04F

$$

VAZ036>039-050-010900-
CENTRAL FOOTHILLS

CITY           SKY/WX    TMP DP  RH WIND       PRES   REMARKS
CHARLOTTESVILL RAIN      53  51  93 S7        30.12S FOG
CULPEPER*      RAIN      53  53  99 S3        30.13F
ORANGE*        RAIN      54  54 100 CALM      30.15R
GORDONSVILLE*  CLOUDY    53  53 100 S6        30.13S FOG
WARRENTON*     RAIN      53  48  84 SE3       30.12F

$$

VAZ055>057-010900-
NORTH AND CENTRAL PIEDMONT

CITY           SKY/WX    TMP DP  RH WIND       PRES   REMARKS
FREDERICKSBRG* LGT RAIN  53  53 100 SE3       30.14F
STAFFORD*      RAIN      51  50  95 SE3       30.18F

$$

NCZ024-NYZ072-PAZ021-071-VAZ022-071-010900-
OTHER REGIONAL OBSERVATIONS

CITY           SKY/WX    TMP DP  RH WIND       PRES   REMARKS
NEW YORK CITY  CLOUDY    50  32  50 CALM      30.22S
PHILADELPHIA   LGT RAIN  50  39  66 E3        30.19R
PITTSBURGH     LGT RAIN  56  53  90 S5        29.92S
ROANOKE        RAIN      54  53  97 SE6       30.11F
RICHMOND       HVY RAIN  52  50  93 CALM      30.16R FOG
RALEIGH        CLOUDY    60  56  86 CALM      30.12F

$$

ANZ530>537-010900-
MARINE OBSERVATIONS

STATION/POSITION TIME  TEMP    WIND        PRES
                       AIR SEA DIR/SP/G
                 (UTC) (F)     (DEG/KT/KT) (MB)
THOMAS PT LIGHT  0800   53 57  170/ 11/ 12 1022.3R
BALT KEY BRIDGE  0700   52     150/ 10/ 12 1021.0F
COVE POINT       0700   52     160/  8/ 11 1021.6F
LEWISETTA        0700   55 59  150/  6/  7 1020.8F
SOLOMONS ISLAND  0700   54 59  120/  9/ 11   N/A
PINEY POINT      0700          150/ 12/ 14   N/A

$$




USA.gov is the U.S. government's official web portal to all federal, state and local government web resources and services.